RH
21 16 21 46 69 84 92 95 97 95 94 99 101 100 101 101 100 97 90 84 79 74 71 69 68 67 67 69 71 77 84 90 97 101 102 101 100 100 100 99 96 94 98 103 103 98 93 91 92 96 99 99 98 98 97 96 97 99 100 101 100 99 95
18 21 36 55 73 89 96 96 98 98 96 99 100 101 101 97 94 89 82 75 69 65 63 62 62 63 61 62 67 68 71 79 88 93 96 98 97 97 98 97 95 91 89 94 99 101 98 94 94 96 100 102 100 100 100 97 95 93 92 93 92 90 87
22 36 56 69 77 90 97 98 100 99 98 100 101 101 99 92 86 82 76 72 67 63 61 60 60 60 61 70 79 78 76 83 92 94 95 97 97 97 98 96 94 90 86 86 94 102 102 100 100 100 101 101 101 101 101 100 98 93 90 89 86 82 80
27 38 50 59 67 78 87 93 98 100 100 101 101 102 100 96 92 86 81 80 73 64 61 61 63 69 79 91 97 95 92 94 99 100 99 100 100 100 100 98 97 95 92 92 96 101 102 101 101 102 101 101 100 100 100 101 102 100 99 98 94 87 83
37 52 68 79 82 82 84 88 95 100 101 100 101 102 103 104 104 98 93 93 89 77 69 69 77 87 96 100 101 101 101 100 101 101 100 100 100 100 100 100 99 99 98 98 99 100 101 100 101 101 101 101 101 100 101 102 103 102 102 103 103 100 94
36 53 77 95 100 98 97 96 98 100 100 98 97 98 99 102 104 100 94 94 97 96 90 88 95 101 101 100 101 101 100 101 102 102 101 101 100 100 100 100 100 100 100 100 100 100 100 100 101 101 101 102 102 99 98 98 97 96 96 95 96 95 93
35 45 60 76 86 91 94 94 93 94 97 97 96 97 98 101 102 99 94 91 94 98 96 95 99 101 98 98 99 100 100 100 101 101 101 101 100 100 100 100 100 100 100 100 100 100 100 100 102 102 99 99 98 93 87 82 79 76 74 72 70 69 67
37 43 52 61 70 78 85 89 90 93 97 99 99 100 100 101 102 101 99 97 97 95 91 89 91 94 96 97 98 99 100 100 100 100 100 100 100 100 100 100 100 100 101 100 100 100 100 100 102 102 99 94 90 84 78 71 64 59 56 52 50 47 45
40 48 59 68 75 82 89 94 96 96 98 99 100 101 100 100 101 100 100 100 100 99 96 94 94 96 98 99 99 100 100 100 100 100 100 100 100 100 100 100 100 100 101 100 100 101 101 101 101 102 100 94 85 79 74 69 61 54 49 44 42 40 38
39 46 58 71 81 87 93 98 101 101 101 101 101 101 101 100 99 99 100 100 99 100 100 99 100 100 100 100 100 100 100 100 100 100 100 100 100 100 100 100 101 101 100 100 100 101 103 104 103 104 103 99 91 83 75 69 63 57 51 46 43 40 38
38 43 50 59 70 78 85 92 98 101 102 101 101 101 101 101 100 99 100 99 99 100 100 100 100 100 100 100 100 100 100 100 100 100 100 100 100 100 100 101 102 101 100 100 100 100 102 103 104 104 103 100 95 89 82 75 69 63 60 55 50 45 41
39 42 47 53 60 67 74 82 90 97 101 102 101 101 100 100 100 100 100 99 100 100 99 100 100 100 100 100 100 100 100 100 100 100 100 100 100 100 100 101 102 101 99 99 99 100 100 100 101 101 101 99 97 94 92 87 81 75 70 66 60 53 48
43 44 47 51 56 61 67 73 78 84 91 96 100 101 101 101 100 100 100 100 100 100 100 100 100 100 100 100 100 100 100 100 100 100 100 100 100 100 100 100 100 100 100 100 99 100 100 100 101 100 100 101 100 97 93 89 85 81 77 73 67 61 56
42 44 46 48 52 56 61 65 68 71 76 81 87 92 95 98 100 100 100 100 100 100 100 100 100 100 100 100 100 100 100 100 100 100 101 101 100 100 100 100 100 100 100 100 100 100 100 100 101 101 100 100 99 97 92 87 83 79 75 72 68 64 60
39 42 45 47 49 52 55 59 61 63 66 69 72 76 80 85 90 92 94 96 98 100 100 101 101 100 100 100 100 100 100 100 100 100 100 100 100 100 100 100 100 100 100 100 100 100 101 100 101 101 100 98 96 94 91 86 81 76 71 67 63 59 55
38 40 43 46 49 50 53 56 57 58 62 64 66 67 69 73 76 79 82 84 87 90 92 94 95 96 97 98 99 99 99 99 100 100 100 100 100 101 100 100 101 101 101 100 99 99 98 97 97 96 95 93 91 88 86 82 76 71 65 59 53 49 46
40 42 44 45 47 48 50 53 55 56 57 59 61 62 64 67 69 71 73 74 76 78 80 81 81 82 83 84 85 87 88 89 90 90 91 92 93 94 95 96 97 97 96 93 91 90 89 88 87 87 85 84 83 80 77 73 68 63 58 52 47 44 43
42 44 45 46 48 48 49 52 55 55 54 55 56 56 57 61 64 67 69 70 70 72 74 76 77 77 76 75 75 76 76 76 77 77 77 78 79 80 82 83 83 82 79 77 75 75 75 75 75 74 73 72 71 69 66 63 60 58 56 53 51 50 50
41 44 46 49 49 49 49 51 55 57 56 54 54 54 53 55 57 60 63 64 64 66 68 72 75 77 77 76 76 76 75 73 73 72 72 72 73 74 77 79 79 76 74 73 71 70 71 70 70 69 68 68 67 66 65 64 62 62 61 61 60 60 60
40 42 46 50 52 52 52 53 55 57 57 55 55 55 54 54 54 56 56 56 56 58 61 64 68 70 72 73 74 76 77 77 75 74 73 74 74 76 78 79 79 79 79 78 77 77 76 75 75 74 73 73 73 72 72 71 70 70 69 68 68 67 67
43 45 47 51 54 56 57 57 58 58 58 57 55 55 54 54 55 56 55 54 54 55 56 57 59 61 62 63 65 67 70 73 73 71 71 72 74 76 78 78 79 80 81 82 82 83 82 81 80 80 79 78 78 77 77 76 75 74 72 70 68 67 65
46 46 47 50 54 57 59 60 60 59 59 58 56 55 53 52 53 53 53 54 55 56 57 57 57 57 58 58 59 60 62 64 65 64 63 64 65 67 68 70 72 74 75 76 78 78 79 79 79 78 77 76 74 73 72 71 69 68 66 65 63 61 59
46 46 46 47 51 54 57 58 58 58 58 58 57 55 52 51 50 51 51 51 52 55 56 56 56 56 56 56 57 57 58 59 60 61 61 61 61 61 62 62 63 65 66 67 67 68 68 69 69 68 68 67 66 65 64 62 61 60 60 59 58 57 55
46 46 46 47 49 52 54 56 57 57 57 58 57 54 52 50 49 49 49 49 50 51 52 53 54 54 55 55 55 56 56 56 57 58 59 59 59 59 59 59 59 60 60 60 61 61 61 60 60 60 60 59 59 58 57 57 56 55 54 54 53 52 51
49 49 50 50 51 52 54 55 55 55 54 54 54 52 49 48 47 46 46 46 46 46 46 47 48 49 50 51 51 52 52 53 54 54 55 55 56 56 55 55 55 55 56 56 56 56 55 55 55 55 54 54 53 52 51 50 49 48 47 45 44 42 41
52 52 53 53 53 53 52 52 52 51 49 47 46 46 45 43 41 40 40 39 39 39 39 39 40 40 41 41 42 43 44 45 46 47 48 48 49 50 50 51 51 51 51 51 51 50 50 50 49 48 48 47 46 44 42 41 39 37 35 33 32 30 29
56 54 53 51 51 51 50 49 48 46 44 41 39 38 37 35 33 32 31 30 29 29 29 29 30 31 31 32 33 34 34 35 36 37 38 38 39 40 40 41 42 43 43 43 43 43 42 41 40 39 38 37 35 33 31 29 28 28 27 25 24 23 23
58 57 54 50 48 48 46 45 43 41 38 35 33 31 29 27 25 23 21 20 20 19 19 19 20 21 22 24 25 26 27 28 29 30 31 31 31 32 32 32 33 33 33 33 33 33 32 31 30 29 28 27 26 26 25 25 25 25 26 26 25 25 27
57 57 55 52 48 45 43 41 39 36 33 29 26 23 21 19 17 15 14 14 13 13 13 13 14 15 16 17 18 20 21 23 24 26 28 29 29 30 30 30 30 30 29 29 28 28 28 28 27 27 27 28 29 31 32 33 34 35 36 36 36 36 37
58 56 55 52 49 45 41 38 34 30 26 23 20 17 15 14 13 12 12 12 11 11 11 11 11 12 13 13 14 16 17 19 21 24 26 29 32 34 36 37 38 38 37 36 34 34 35 36 36 37 38 39 41 45 47 49 49 49 50 50 50 50 49
62 58 55 51 47 43 38 33 28 24 21 18 15 14 13 12 12 12 12 11 11 10 10 10 10 11 11 11 12 13 14 16 17 20 24 29 34 40 46 51 54 55 54 53 54 54 53 53 53 54 55 56 59 62 64 66 66 65 64 63 60 55 49
64 59 55 50 45 39 33 28 24 20 17 15 14 14 14 14 13 13 12 11 10 10 10 10 10 10 11 11 12 12 13 14 15 18 21 26 34 44 55 64 72 76 75 75 78 80 78 76 75 74 75 76 77 78 79 80 78 74 68 60 51 41 33
64 59 53 47 40 33 28 24 20 17 16 16 16 15 15 14 14 13 12 11 10 10 10 11 11 11 11 12 12 13 14 16 19 24 29 34 43 54 66 77 86 93 96 97 98 97 96 96 95 93 91 90 89 88 85 79 70 59 49 39 31 25 20
62 56 49 41 34 29 25 21 18 17 17 18 17 17 16 16 15 15 13 12 11 10 11 12 12 12 13 15 18 23 27 32 37 42 47 53 60 68 77 84 89 94 99 103 104 102 101 101 100 98 96 93 87 78 67 56 45 37 30 25 22 19 18
57 49 41 35 31 27 22 18 17 19 19 19 19 18 17 17 18 17 16 14 13 12 12 12 13 14 17 21 27 36 44 52 61 67 71 76 79 81 84 88 90 93 98 102 104 104 103 101 97 91 84 73 62 51 42 36 31 28 24 22 21 21 23
49 42 37 33 29 23 19 18 19 20 20 20 20 20 20 20 20 20 19 19 18 16 15 15 15 17 21 26 34 45 54 61 69 75 79 82 86 89 93 97 99 102 103 103 101 97 91 83 73 64 54 45 39 35 32 30 28 26 24 24 25 27 29
Wind_Speed
67 65 62 61 62 63 64 64 64 65 69 71 70 68 66 64 63 61 60 60 60 59 59 59 58 58 58 58 59 59 60 60 60 61 61 62 62 61 61 61 60 59 60 60 60 59 59 60 60 60 61 61 61 61 62 62 62 62 62 63 63 63 63
64 62 60 60 62 65 67 67 68 70 72 74 73 69 66 64 62 61 60 59 59 58 58 58 58 58 59 59 60 61 61 61 60 60 60 60 61 61 61 61 61 60 60 60 61 61 61 61 61 61 61 61 60 60 61 61 62 62 63 63 63 63 63
62 61 60 61 63 67 69 69 69 69 70 72 72 69 65 62 60 59 58 58 58 58 58 58 58 59 59 58 60 62 63 62 61 60 60 59 59 59 60 60 61 61 60 60 61 61 61 61 62 62 62 61 60 59 59 60 61 61 62 63 63 63 63
62 62 63 64 66 69 71 71 70 68 66 66 66 64 62 59 57 56 56 56 57 57 58 58 59 59 59 58 59 61 64 63 62 61 59 59 58 59 59 60 60 60 59 59 59 60 60 60 60 61 61 61 59 58 58 58 58 59 60 61 61 62 63
63 63 64 66 67 69 71 72 72 70 66 63 62 61 59 58 56 54 55 56 56 57 58 59 59 59 58 58 59 62 64 63 61 60 59 58 58 58 59 59 58 58 57 57 57 59 60 60 59 59 59 60 59 58 57 56 56 56 57 58 58 59 61
63 64 66 68 69 70 71 71 70 68 65 62 61 60 60 60 59 57 56 57 58 59 59 59 59 59 59 60 62 64 64 63 61 60 59 59 59 59 59 59 58 58 58 58 59 59 60 61 60 59 58 58 58 58 58 57 56 55 55 55 56 56 57
63 64 66 68 69 69 69 68 66 64 62 60 59 59 60 61 60 59 58 58 59 60 61 60 60 60 60 61 64 66 66 65 63 62 61 61 61 61 61 61 60 60 61 61 61 62 62 62 61 60 59 58 58 58 58 58 57 57 56 56 55 55 55
63 63 64 65 65 65 64 62 61 59 58 58 58 58 59 59 59 59 59 59 59 60 61 61 60 61 62 64 67 69 69 67 66 65 64 63 64 63 63 63 62 62 62 63 63 63 64 64 63 62 61 60 60 60 60 60 59 59 59 58 58 58 57
61 62 62 63 63 63 62 60 59 57 56 56 57 57 58 58 58 59 60 61 62 62 63 63 64 65 66 67 68 68 67 66 66 65 65 65 64 64 64 64 63 63 64 64 65 65 66 66 66 66 66 65 63 63 62 62 62 62 61 61 61 61 61
60 60 61 62 62 62 62 61 60 58 57 57 57 57 57 56 57 58 60 62 63 63 64 65 66 67 67 67 66 65 64 65 65 66 66 65 65 65 65 65 65 66 67 67 68 68 69 69 69 70 70 69 68 67 66 66 66 66 65 65 65 64 64
59 58 59 60 60 61 62 62 61 61 61 60 59 59 57 56 56 57 58 59 61 63 64 65 66 66 66 66 65 65 64 65 66 66 67 67 67 67 67 67 68 70 70 71 72 72 73 73 73 73 73 73 72 72 71 70 70 70 70 70 70 69 69
58 58 58 59 59 60 61 61 62 63 63 63 62 61 60 59 58 59 59 59 60 62 63 65 65 66 66 66 66 66 66 66 67 68 69 69 69 70 70 71 72 73 74 75 76 76 76 76 76 76 76 76 76 75 74 74 74 74 74 74 74 74 74
59 59 59 59 59 60 60 61 62 63 64 65 65 65 64 63 62 62 61 61 61 62 63 64 65 66 66 67 67 67 68 68 69 71 72 72 73 73 74 74 75 75 76 77 77 78 78 78 78 78 77 78 78 78 77 77 76 75 75 75 76 76 76
59 59 59 59 60 60 61 62 62 63 64 65 66 66 66 66 66 66 66 66 66 66 66 66 66 66 67 67 67 68 69 69 70 71 73 74 74 75 76 76 76 77 77 78 78 78 78 79 79 79 79 78 78 78 78 78 77 78 78 78 79 79 80
60 60 60 60 60 60 61 62 63 63 64 65 66 66 67 67 67 68 68 69 70 71 71 71 71 71 70 70 70 70 70 71 71 72 73 74 75 76 77 78 79 79 80 80 80 80 80 81 81 81 81 80 80 80 80 80 81 81 82 83 83 84 85
59 59 59 60 60 60 60 62 62 63 63 64 65 65 66 67 67 68 68 69 70 72 74 75 76 76 76 76 76 76 75 75 75 75 75 76 77 78 79 80 81 82 83 83 83 83 84 84 84 84 83 83 83 83 83 84 84 85 86 88 88 89 89
58 58 58 59 59 60 60 61 62 63 63 64 65 65 65 66 67 68 68 69 70 71 73 75 76 78 79 80 80 80 81 81 80 80 80 80 80 80 81 82 84 85 85 86 86 87 87 88 88 87 87 86 86 86 87 88 88 89 90 91 90 90 90
58 58 58 58 59 60 60 61 62 63 63 64 65 66 66 66 67 67 68 69 69 70 71 73 75 76 78 79 80 81 82 82 83 83 83 83 83 83 83 83 85 86 87 88 89 89 89 89 89 89 89 88 88 88 89 89 88 88 89 89 88 87 87
60 60 59 59 60 60 60 60 61 63 63 64 65 65 66 67 68 68 69 70 70 70 71 72 73 75 76 76 77 79 80 81 81 82 82 83 83 83 83 84 85 85 86 87 87 87 87 87 87 87 87 87 86 86 86 86 85 85 85 84 83 83 83
62 61 61 61 61 61 61 61 62 63 63 64 64 65 66 66 67 68 69 70 71 72 72 73 74 75 76 76 76 77 78 79 80 80 80 80 81 80 81 82 82 82 82 82 82 83 83 83 83 83 83 83 83 83 83 83 82 82 82 81 80 80 80
63 62 62 62 62 62 62 63 63 64 64 65 65 66 66 67 67 68 69 69 70 71 72 73 75 75 76 77 77 77 78 79 79 80 79 79 79 79 80 80 80 80 80 79 79 80 80 80 81 81 81 81 81 81 81 81 81 81 81 81 81 81 81
63 62 62 62 62 62 62 62 63 63 64 65 66 67 67 68 68 69 70 69 70 70 71 72 74 75 75 76 77 77 77 78 79 80 80 80 80 80 80 80 80 80 80 80 79 79 80 80 80 81 81 82 82 82 82 82 82 82 82 82 82 83 83
61 61 61 61 62 62 62 62 63 63 63 64 65 66 67 67 68 69 70 70 70 71 71 72 73 74 75 75 76 76 76 77 77 78 78 79 79 80 80 80 79 79 79 79 79 79 79 79 80 80 80 81 81 81 82 82 82 82 82 82 82 82 82
62 61 61 61 61 62 63 63 63 64 64 65 66 66 66 67 67 68 69 70 70 71 72 72 73 74 74 75 75 76 76 77 77 77 77 77 77 77 78 78 78 77 77 77 77 77 77 77 78 78 79 79 79 79 79 79 80 80 80 81 81 81 81
62 62 62 62 62 63 64 64 65 65 65 65 67 68 68 69 69 69 70 70 71 72 73 73 74 75 75 75 76 76 76 76 76 77 77 77 77 77 77 77 76 76 76 76 76 76 76 76 77 77 78 78 78 78 78 79 79 79 79 80 80 80 80
64 64 63 63 64 64 65 65 66 67 67 67 67 68 69 70 70 71 71 72 72 73 74 75 76 76 77 77 77 77 77 77 78 78 78 78 78 77 77 77 76 76 76 76 76 76 76 76 77 77 78 78 78 78 78 78 78 78 78 78 78 78 78
65 65 65 65 65 65 66 66 67 68 68 68 68 69 71 72 72 73 73 73 74 75 75 76 77 78 79 79 79 79 79 79 79 79 79 79 79 78 78 77 77 77 76 76 76 76 76 76 77 77 77 77 76 76 76 76 76 75 75 75 75 74 73
66 66 66 66 66 66 66 67 68 69 70 70 70 70 71 73 73 73 73 74 74 74 75 76 76 77 78 79 79 79 80 79 79 79 79 79 78 78 77 77 76 76 75 75 75 75 74 74 74 73 73 72 72 71 70 70 70 69 69 69 69 68 67
66 66 67 67 67 67 67 68 69 70 70 70 70 70 70 70 70 70 70 70 71 71 72 72 73 74 74 75 76 76 76 76 76 75 75 75 75 75 74 74 73 72 71 71 71 70 69 69 68 67 67 66 65 65 64 64 64 63 63 63 63 63 62
67 67 67 67 67 68 68 68 69 69 69 69 68 67 66 65 65 65 65 65 66 66 66 67 67 69 70 71 71 71 71 71 70 70 70 69 69 69 68 68 67 66 65 65 65 64 63 62 62 61 61 60 59 59 58 58 58 58 58 58 59 59 59
67 66 66 66 66 67 68 67 67 66 65 64 62 61 60 60 60 60 61 61 62 62 62 62 63 63 65 65 66 66 66 66 65 65 64 64 63 63 62 61 60 60 59 59 58 57 57 57 56 56 56 55 55 55 54 55 55 55 55 56 56 56 56
66 66 66 66 66 65 65 64 63 61 59 57 56 55 54 54 55 56 56 57 57 57 56 57 57 57 58 59 59 59 60 60 60 59 58 58 57 56 56 55 55 54 54 53 52 52 52 52 52 52 52 52 52 52 52 52 52 53 53 53 53 53 53
64 64 64 64 64 62 60 58 56 54 53 51 51 50 50 50 51 51 51 51 51 50 49 49 49 49 50 51 51 51 52 52 52 52 51 51 51 50 50 50 50 49 49 49 49 49 49 49 49 49 50 50 50 49 49 49 49 49 49 49 49 48 47
63 63 62 61 60 57 54 51 50 49 48 47 47 47 47 46 46 46 46 45 44 43 43 42 42 42 42 42 42 43 43 43 43 44 44 44 44 44 44 45 45 44 44 45 45 46 46 46 46 46 46 46 46 46 45 45 44 45 44 44 43 41 39
61 61 59 57 54 52 49 46 45 45 44 44 44 44 44 43 42 41 41 40 39 38 38 37 36 36 36 36 35 36 36 36 37 37 37 38 38 38 38 39 39 39 39 40 40 40 41 42 42 42 42 42 41 41 41 40 40 40 39 37 35 33 32
59 57 54 51 49 47 45 44 42 42 41 42 42 42 41 40 38 38 37 37 36 35 34 33 32 31 31 31 31 31 32 32 32 32 32 32 33 33 33 34 34 34 34 35 35 36 37 37 37 37 37 37 37 37 36 36 35 34 33 31 30 30 30
Wind_Direction
287 287 284 279 275 275 275 273 270 269 269 271 271 270 269 267 266 267 268 269 269 270 271 270 270 270 270 271 271 270 270 269 268 268 268 268 268 268 268 267 267 266 266 267 267 266 265 265 265 265 265 265 265 264 263 263 263 262 262 262 261 261 261
285 283 280 276 273 272 273 274 273 272 272 273 275 275 274 272 271 270 271 271 270 270 270 270 270 270 269 270 270 270 270 269 269 269 268 268 268 268 268 267 267 266 265 266 267 266 265 265 264 264 263 263 263 262 262 262 262 262 262 262 262 262 262
283 280 277 274 272 271 272 273 273 273 273 272 273 275 275 274 273 272 271 270 270 269 268 267 267 267 268 268 269 269 269 268 268 268 268 268 268 268 268 267 267 266 266 265 266 265 264 263 262 262 261 260 260 260 260 260 260 261 261 262 262 262 263
282 279 275 273 271 270 270 272 273 275 275 274 273 274 274 274 272 270 268 267 266 266 265 265 264 264 265 265 265 265 267 268 268 268 268 267 267 267 266 266 265 266 266 265 264 263 261 260 259 258 258 257 257 257 258 258 258 259 260 261 261 262 262
281 278 276 274 273 272 272 273 275 276 277 275 274 273 273 273 271 269 267 264 263 264 264 263 262 261 262 263 261 262 266 268 268 268 268 268 267 266 264 264 264 264 264 263 262 260 259 258 257 256 256 256 256 256 256 257 257 257 258 259 260 261 261
280 278 276 275 275 275 275 276 276 277 277 276 274 272 271 271 271 270 268 265 263 262 262 262 261 261 261 262 262 263 265 267 268 268 268 268 267 265 264 264 263 264 263 262 261 260 258 257 256 256 256 257 257 256 256 256 256 256 256 257 258 260 260
281 278 276 276 276 276 277 278 278 278 276 275 272 270 268 268 269 269 268 267 264 262 261 261 260 261 262 263 264 264 263 263 264 265 265 266 265 264 264 263 263 263 263 262 261 260 258 256 255 255 256 257 258 257 257 256 256 256 256 256 257 258 259
281 279 278 277 277 277 277 278 278 277 275 273 270 269 268 268 268 268 268 267 265 264 262 262 261 262 263 264 264 263 260 259 259 260 262 262 262 262 262 262 262 263 262 262 261 260 259 257 256 256 257 258 258 258 257 257 257 257 257 257 257 257 257
282 280 279 278 277 278 278 278 279 278 277 274 271 271 271 270 269 268 268 267 266 265 264 263 263 263 263 262 260 259 257 257 257 259 259 260 260 260 260 261 261 262 262 262 261 260 259 258 257 258 259 259 260 259 259 259 259 259 259 258 258 258 258
282 281 279 278 277 277 277 278 278 277 277 275 274 274 273 273 272 270 269 268 266 264 262 261 260 260 259 258 257 257 257 258 259 259 259 259 259 259 260 261 261 262 262 262 261 261 259 258 258 259 259 260 261 261 261 261 261 261 261 260 259 259 258
284 283 281 279 278 276 276 275 275 275 275 274 275 275 274 274 274 273 273 271 267 264 261 259 258 257 257 257 257 258 258 258 258 257 257 257 257 257 258 259 261 262 263 263 262 261 261 260 260 260 261 261 262 262 262 263 263 263 262 261 260 260 259
286 285 283 281 279 278 276 275 274 273 273 273 273 273 272 272 272 272 272 271 270 267 264 261 259 258 257 257 257 257 257 257 256 256 256 256 256 256 257 258 259 260 262 262 262 262 262 261 262 262 262 263 263 263 264 265 265 264 263 262 261 261 261
287 286 284 283 281 279 278 276 275 273 272 272 271 271 270 270 269 269 269 269 269 268 266 265 263 262 261 260 259 258 256 255 255 255 255 256 256 257 258 259 260 260 261 261 262 262 262 262 262 263 263 263 263 263 264 265 265 265 264 263 262 262 263
288 287 285 283 282 280 279 277 276 275 273 272 271 271 270 269 269 268 268 268 268 268 268 267 266 265 264 263 262 261 259 258 257 256 256 257 257 258 259 260 261 261 261 262 262 262 262 263 264 264 265 265 265 265 264 265 265 265 265 265 264 265 265
288 287 286 285 283 281 280 278 277 276 275 274 273 272 272 271 270 269 268 267 267 267 268 268 267 266 266 265 264 263 262 261 261 260 261 261 261 262 262 263 263 263 264 264 264 264 264 265 266 267 267 267 268 268 267 267 267 267 267 267 268 268 268
289 288 287 286 284 282 281 280 279 278 277 276 275 274 274 273 272 271 270 268 267 267 267 267 267 266 266 266 266 266 265 264 264 263 264 264 264 265 265 265 266 266 266 266 267 267 268 268 269 270 270 270 270 269 269 269 269 270 270 270 270 271 271
289 288 287 286 285 284 282 281 280 278 278 277 276 276 275 274 274 273 272 271 270 269 268 268 267 266 266 266 266 267 266 266 266 266 266 266 266 266 266 267 267 267 268 268 269 269 270 270 271 271 271 271 270 270 270 270 271 271 271 271 271 271 271
288 287 287 286 285 284 283 282 281 279 278 277 277 276 275 275 274 274 273 272 272 271 270 270 269 268 268 267 267 267 267 268 268 267 267 268 268 268 268 268 268 268 268 269 269 269 270 270 270 270 270 271 271 271 271 271 271 270 270 270 270 270 269
287 286 286 285 284 284 283 282 281 280 280 278 277 277 276 275 274 274 273 273 272 271 271 271 270 270 270 269 269 269 269 269 269 269 269 269 269 269 269 269 269 269 269 269 269 269 269 270 270 270 270 270 270 271 271 271 270 270 269 269 269 268 268
287 287 286 285 284 283 283 282 281 281 280 280 279 278 277 276 275 274 273 273 272 272 271 271 270 270 270 270 270 270 270 270 270 269 269 269 269 269 269 269 269 269 269 269 269 270 270 270 270 270 270 270 270 270 270 270 270 270 269 269 269 268 268
288 287 286 285 284 284 283 282 281 280 280 279 279 278 278 277 276 275 274 274 273 272 272 271 271 270 270 270 270 269 270 270 269 269 268 268 268 268 268 268 268 269 269 269 269 270 270 270 270 270 270 270 270 270 270 270 270 270 270 269 269 269 268
287 287 287 286 285 284 283 282 282 281 280 279 279 278 277 277 276 276 276 275 274 274 273 272 272 271 271 271 270 270 270 270 270 269 269 269 268 268 268 268 269 269 269 269 269 269 270 270 270 270 270 270 270 269 269 269 270 270 270 270 269 269 269
288 288 287 287 286 286 285 284 284 283 282 281 280 279 278 277 277 276 276 276 275 275 274 273 273 272 272 271 271 270 270 270 270 270 269 269 269 269 269 269 269 269 269 269 269 269 269 269 269 269 269 270 270 269 269 270 270 269 269 269 269 269 269
289 289 288 288 287 287 286 285 285 284 284 283 282 281 280 279 278 278 277 277 276 276 275 275 274 273 273 272 271 271 270 270 270 270 269 269 269 269 269 269 268 268 268 268 268 268 268 268 268 269 269 269 269 269 269 269 269 269 269 269 269 269 269
290 290 289 289 288 287 287 286 285 285 284 283 283 283 282 281 280 279 278 277 277 276 276 275 275 274 273 273 272 272 271 271 270 270 270 270 269 269 269 269 268 268 268 268 268 268 268 268 268 268 268 269 269 269 270 270 270 270 270 270 270 270 270
290 290 289 289 288 288 287 287 286 285 284 284 283 283 283 282 281 280 279 278 277 277 276 275 275 274 274 273 272 272 271 271 271 270 270 270 270 269 269 269 269 269 269 269 269 268 268 268 268 269 269 269 270 270 270 270 270 270 271 271 271 271 271
290 290 289 289 288 288 288 288 287 287 286 285 285 285 284 284 283 282 281 280 278 277 276 276 275 274 273 273 272 272 271 270 270 270 270 270 270 269 269 269 269 269 269 269 269 269 269 269 269 269 269 270 270 270 270 270 270 270 270 270 270 271 271
290 290 290 290 289 289 289 289 289 288 288 287 287 286 286 285 284 283 282 281 279 278 277 276 275 274 273 272 272 271 271 270 270 269 269 269 269 269 269 269 269 269 268 268 268 268 269 269 269 269 269 269 269 269 269 269 269 269 269 269 270 270 270
291 291 291 291 291 290 290 290 290 290 290 289 289 288 287 286 285 284 283 282 280 279 278 277 276 275 274 273 272 271 271 270 270 269 269 269 269 269 269 269 269 268 268 268 267 268 268 268 268 268 268 268 268 267 267 268 268 268 268 269 269 270 270
292 292 292 292 292 292 292 292 292 292 291 291 290 289 288 287 286 285 284 283 282 281 280 279 278 276 275 274 273 272 272 271 270 270 269 269 268 268 268 268 268 268 267 267 267 266 266 266 266 266 266 266 266 266 266 267 267 267 268 269 269 270 271
293 293 293 293 293 293 293 293 293 292 292 291 290 289 288 288 287 287 286 285 285 284 283 281 279 277 276 275 274 273 272 271 271 270 270 269 269 268 268 267 267 267 266 266 266 266 265 265 265 265 265 265 265 266 266 267 267 268 269 270 270 271 272
293 294 294 294 294 295 295 294 293 292 291 290 290 289 289 289 289 289 288 288 287 287 285 284 282 280 278 276 274 273 272 271 271 270 270 269 268 268 267 267 266 266 266 266 265 265 265 265 265 265 265 265 265 266 267 268 268 269 269 270 271 271 272
294 294 295 295 296 295 294 293 292 291 290 290 291 291 291 291 292 291 291 291 291 290 288 286 285 282 280 278 276 274 273 272 271 270 270 269 268 267 267 266 266 265 265 265 264 264 264 264 264 264 265 265 266 266 267 268 268 269 269 270 271 271 271
295 295 296 296 295 294 293 291 290 290 291 292 292 292 293 293 294 294 295 295 294 293 291 289 288 286 284 281 279 277 275 274 272 271 270 269 268 267 267 266 265 264 263 263 263 262 262 262 262 263 263 264 265 265 265 266 267 268 269 269 269 268 267
296 297 296 295 294 292 291 290 290 291 292 293 293 292 293 295 296 296 297 297 296 295 295 294 292 290 288 286 283 281 279 277 275 273 272 271 270 268 267 266 265 263 262 261 261 260 260 260 260 261 261 261 262 263 264 265 265 266 266 265 264 262 262
296 296 295 293 292 291 291 291 291 292 292 292 292 292 293 295 296 296 297 298 298 298 299 298 296 294 291 289 286 284 281 279 277 275 273 271 270 268 267 266 264 263 261 260 259 259 258 258 258 258 259 260 261 262 262 262 262 261 260 260 259 260 262